This demonstration page uses our WeatherBlox Daily Observations layout. Learn more.

Left ArrowRight Arrow

Hourly Observations for December 12, 2019

Temp ( °F °C ) Dew Point ( °F °C ) Humidity (%) Winds ( mph kmh ) Pressure ( in mb ) Visibility ( mi km ) Precip ( " mm )
12:56 am 00:56 Partly Cloudy 34 1 23 -5 65 65 SE 9 15 30.10 1019 10 16 0.00 0.00
1:56 am 01:56 Mostly Cloudy 36 2 27 -3 70 70 SE 10 17 30.07 1018 10 16 0.00 0.00
2:56 am 02:56 Mostly Cloudy 36 2 27 -3 70 70 SE 6 9 30.06 1018 10 16 0.00 0.00
3:56 am 03:56 Mostly Cloudy 36 2 28 -2 75 75 SSE 7 11 30.04 1017 10 16 0.00 0.00
4:56 am 04:56 Mostly Cloudy 36 2 28 -2 75 75 SE 6 9 30.02 1017 10 16 0.00 0.00
5:56 am 05:56 Mostly Cloudy 25 -4 30 -1 100 100 SSE 9 15 30.01 1016 10 16 0.00 0.00
6:56 am 06:56 Mostly Cloudy 39 4 30 -1 70 70 S 7 11 30.03 1017 10 16 0.00 0.00
7:56 am 07:56 Cloudy 39 4 32 0 75 75 SSW 7 11 30.04 1017 10 16 0.00 0.00
8:56 am 08:56 Cloudy 41 5 34 1 76 76 WSW 9 15 30.06 1018 10 16 0.00 0.00
9:56 am 09:56 Partly Cloudy 41 5 32 0 70 70 W 10 17 30.08 1019 10 16 0.00 0.00
10:56 am 10:56 Mostly Cloudy 41 5 28 -2 61 61 WNW 12 19 30.08 1019 10 16 0.00 0.00
11:56 am 11:56 Mostly Cloudy 41 5 25 -4 53 53 WNW 9 15 30.08 1019 10 16 0.00 0.00
12:56 pm 12:56 Mostly Cloudy 39 4 25 -4 56 56 WNW 8 13 30.07 1018 10 16 0.00 0.00
1:56 pm 13:56 Mostly Cloudy 39 4 25 -4 56 56 NNW 6 9 30.06 1018 10 16 0.00 0.00
2:56 pm 14:56 Mostly Cloudy 37 3 25 -4 60 60 NW 9 15 30.07 1018 10 16 0.00 0.00
3:56 pm 15:56 Mostly Cloudy 36 2 25 -4 65 65 NNW 6 9 30.09 1019 10 16 0.00 0.00
4:56 pm 16:56 Mostly Cloudy 34 1 25 -4 70 70 N 3 6 30.10 1019 10 16 0.00 0.00
5:56 pm 17:56 Cloudy 30 -1 23 -5 75 75 N 5 7 30.11 1020 10 16 0.00 0.00
6:56 pm 18:56 Mostly Cloudy 30 -1 23 -5 75 75 N 7 11 30.11 1020 10 16 0.00 0.00
7:56 pm 19:56 Partly Cloudy 28 -2 23 -5 80 80 N 3 6 30.12 1020 10 16 0.00 0.00
8:56 pm 20:56 Mostly Clear 27 -3 21 -6 80 80 N 5 7 30.11 1020 10 16 0.00 0.00
9:56 pm 21:56 Mostly Clear 27 -3 21 -6 80 80 Calm 30.11 1020 10 16 0.00 0.00
10:56 pm 22:56 Mostly Cloudy 25 -4 21 -6 86 86 N 5 7 30.10 1019 10 16 0.00 0.00
11:56 pm 23:56 Mostly Cloudy 23 -5 19 -7 86 86 NE 5 7 30.08 1019 10 16 0.00 0.00

Powered by AerisWeather